Location: Orange Harbor Mobile Home Park
(26.6923°N, 81.7937°W)
Time: 07:47:46
(UTC+00:00)

CZ-2C R/B - Pass Details

Date: 19 September 2020
Orbit: 704 x 908 km, 98.1° (Epoch: 29 October)

Event Time Altitude Azimuth Distance (km) Brightness Sun altitude
Rises 00:34:41 0° 168° (SSE) 3,168 6.0 -15.8°
Reaches altitude 10° 00:36:54 10° 168° (SSE) 2,273 5.2 -16.2°
Maximum altitude 00:41:55 87° 257° (WSW) 790 3.0 -17.4°
Drops below altitude 10° 00:47:16 10° 347° (NNW) 2,415 5.9 -18.5°
Sets 00:49:41 0° 348° (NNW) 3,382 6.7 -19.1°
